Home   Weather   Brăila   Past weeks

Flag for Romania Past Weather in Brăila, Romania — Yesterday and Last 2 Weeks

Now
75 °F

Scattered clouds.


Feels Like: 77 °F
Forecast: 49 / 74 °F
Wind: 6 mph from Southeast

Location: Galati

Current Time: Apr 28, 2017 at 7:06:41 pm

Latest Report: Apr 28, 2017 at 6:00 pm


Visibility: 13 mi

Pressure: 29.92 "Hg

Humidity: 30%

Dew Point: 41 °F

Location of BrăilaLocation

Past Weather in Brăila — Graph

°F

Brăila Temperature Yesterday

Maximum temperature yesterday: 74 °F (at 4:00 pm)
Minimum temperature yesterday: 43 °F (at 6:00 am)
Average temperature yesterday: 56 °F

High & Low Weather Summary for the Past Weeks

 TemperatureHumidityPressure
High78 °F (Apr 28, 4:00 pm)100% (Apr 20, 5:00 pm)30.20 "Hg (Apr 20, 5:00 pm)
Low32 °F (Apr 20, 7:00 pm)28% (Apr 28, 5:00 pm)29.72 "Hg (Apr 13, 8:00 pm)
Average49 °F68%29.99 "Hg
* Reported Apr 13 5:00 pm — Apr 28 5:00 pm, Brăila, Weather by CustomWeather, © 2017

Note: Actual official high and low records may vary slightly from our data, if they occured in-between our weather recording intervals... More about our weather records

Advertising

Brăila Weather History for the Previous 24 Hours

Scroll right to see more
 ConditionsComfort  
Time TempWeatherWind HumidityBarometerVisibility
5:00 pm
Fri, Apr 28
78 °FPassing clouds.5 mph28%29.93 "Hg12 mi
4:00 pm78 °FScattered clouds.5 mph29%29.95 "Hg12 mi
3:00 pm78 °FScattered clouds.3 mph34%29.96 "Hg12 mi
2:00 pm72 °FPassing clouds.3 mph52%29.97 "Hg12 mi
1:00 pm69 °FPassing clouds.3 mph53%29.99 "Hg12 mi
12:00 pm64 °FPassing clouds.3 mph63%30.01 "Hg12 mi
11:00 am59 °FPassing clouds.3 mph71%30.01 "Hg12 mi
10:00 am55 °FPassing clouds.3 mph74%30.02 "Hg6 mi
9:00 am52 °FScattered clouds.3 mph83%30.02 "Hg6 mi
8:00 am48 °FScattered clouds.2 mph92%30.01 "Hg6 mi
7:00 am45 °FScattered clouds.2 mph97%30.01 "Hg6 mi
6:00 am45 °FPassing clouds.2 mph97%30.01 "Hg6 mi
5:00 am46 °FClear.2 mph95%30.02 "Hg6 mi
4:00 am46 °FClear.1 mph95%30.03 "Hg6 mi
3:00 am46 °FClear.2 mph93%30.03 "Hg12 mi
2:00 am47 °FClear.1 mph93%30.04 "Hg12 mi
1:00 am48 °FClear.2 mph91%30.05 "Hg12 mi
12:00 am49 °FClear.1 mph88%30.06 "Hg12 mi
11:00 pm
Thu, Apr 27
51 °FClear.1 mph80%30.05 "Hg12 mi
10:00 pm54 °FPassing clouds.2 mph71%30.04 "Hg12 mi
9:00 pm58 °FPassing clouds.2 mph64%30.03 "Hg12 mi
8:00 pm62 °FPartly sunny.2 mph59%30.02 "Hg12 mi
7:00 pm70 °FPartly sunny.3 mph39%30.02 "Hg12 mi
Weather by CustomWeather, © 2017

See weather overviewHow to use our weather pages